Location: *
(51.0333°S, 178.4667°E)
Time: 18:52:28
(UTC+00:00)

STARLINK - Pass Details

Date: 15 November 2019
Orbit: 529 x 530 km, 53.0° (Epoch: 07 December)

Event Time Altitude Azimuth Distance (km) Brightness Sun altitude
Rises 10:00:30 0° 260° (W) 2,678 7.7 -16.4°
Reaches altitude 10° 10:02:44 10° 257° (WSW) 1,789 6.8 -16.6°
Maximum altitude 10:06:47 68° 173° (S) 580 3.8 -16.9°
Enters shadow 10:10:29 12° 90° (E) 1,651 5.8 -17.1°
